www.pogodaiklimat.ru

Погода и климат >> Архив погоды >> Россия >> Красноярский край >> Боготол


ПОГОДА в Боготоле

  • Прогноз погоды в Боготоле
  • Монитор погоды в Боготоле

АРХИВ ПОГОДЫ в Боготоле

Время (UTC), дата Ветер
(напр.,м/с)
 
Видим.   Явления Облачность Т
(С)
Тd
(С)
f
(%)
Тe
(С)
Тes
(С)
Комфортность P
(гПа)
Po
(гПа)
Тmin
(С)
Tmax
(С)
R
(мм)
R24
(мм)
S
(см)
09 13.04 З 3
{15}
20 км 9/4 600 м
[Cb cap Ac trans Ci fib]
+14.6 -4.7 26 +14 +16 1006.3 972.2
12 13.04 З 3 20 км 8/3 600 м
[Cb cap Ac trans]
+13.7 -2.7 32 +13 +13 1006.1 971.9 +15.0
15 13.04 З 1 20 км 9/8 600 м
[Cb cap Ac As]
+9.9 +0.3 51 +10 +10 1007.2 972.5
18 13.04 СЗ 3 10 км дымка 9/4 600 м
[Cb cap Ac As]
+3.0 +3.0 100 -1 -1 1009.6 974.0
21 13.04 З 1 4000 м слаб. ливневой снег 8/8 600 м
[Cb cap]
-0.4 -0.4 100 -3 -3 1011.7 975.6
00 14.04 ЮЗ 2 10 км дымка {ливн. осадки} 10/8 600 м
[Cb cap As op]
-1.2 -1.2 100 -5 -5 1012.3 976.1 -1.3 2 2
03 14.04 З 2 10 км дымка 10/8 600 м
[Cb cap As trans]
+0.5 -0.4 94 -3 -3 1013.1 977.1
06 14.04 З 2 20 км {ливн. осадки} 9/6 600 м
[Cb cap Ci fib]
+2.5 -4.4 60 -0 +4 1013.4 977.5
09 14.04 З 3 20 км 8/6 600 м
[Cb cap Ci fib]
+3.5 -7.5 44 0 +2 1013.5 977.7
12 14.04 СЗ 2 20 км 9/8 1000 м
[Sc Ci fib]
+2.1 -5.9 55 -1 -0 1014.3 978.4 +5.4 0.0
15 14.04 З 1 20 км 9/0
[Ac trans]
+0.6 -6.9 57 -1 -1 1014.5 978.4
18 14.04 штиль 0 20 км 10/0
[As trans]
-0.8 -6.6 65 -2 -2 1014.4 978.1
21 14.04 СЗ 2 20 км 10/8 600 м
[Cb cap As trans]
-2.5 -7.0 71 -6 -6 1014.3 977.8
00 15.04 СЗ 1 4000 м слаб. ливневой снег 8/8 600 м
[Cb cap]
-4.2 -4.8 96 -7 -7 1016.0 979.2 -4.4 0.0
03 15.04 С 3 20 км {ливн. осадки} 9/6 600 м
[Cb cap Ci fib]
-2.3 -9.8 56 -7 -5 1016.3 979.7
06 15.04 З 2 20 км {ливн. осадки} 8/4 1000 м
[Cu med, cong Ci fib]
+0.6 -12.5 37 -2 +4 1015.6 979.4
09 15.04 С 2 20 км 9/6 1000 м
[Cu med, cong Ci fib]
+1.3 -13.1 33 -1 +1 1014.4 978.3
12 15.04 С 2 20 км 9/4 1000 м
[Sc Ci fib]
-0.1 -14.0 34 -3 -2 1013.2 977.0 +1.9 0.0
15 15.04 С 1 20 км 8/0
[Ci fib]
-2.9 -13.9 42 -4 -4 1011.5 975.0
18 15.04 СВ 3 20 км 6/0
[Ci fib]
-4.8 -14.3 47 -10 -10 1010.1 973.4
21 15.04 СВ 4 20 км 3/0
[Ci fib]
-6.5 -14.7 52 -13 -13 1008.8 971.9
00 16.04 СВ 2 20 км 3/0
[Ci fib]
-6.7 -14.6 53 -11 -10 1008.6 971.7 -7.5
03 16.04 С 3 20 км ясно -1.3 -12.7 42 -5 0 1008.2 972.1
06 16.04 СЗ 1 20 км ясно +1.7 -14.2 30 +1 +14 опасность
простуды
1008.9 973.1
09 16.04 С 1 20 км ясно +3.3 -15.0 25 +3 +11 опасность
простуды
1009.3 973.7
12 16.04 Ю 1 20 км ясно +3.2 -15.2 24 +3 +4 1010.2 974.5 +4.3
15 16.04 З 1 20 км ясно -2.3 -12.6 45 -4 -4 1012.2 975.8
18 16.04 Ю 1 20 км ясно -3.6 -12.7 49 -5 -5 1012.7 976.1
21 16.04 ЮЗ 2 20 км ясно -2.4 -12.4 46 -6 -6 1013.2 976.7
00 17.04 Ю 3 20 км 8/0
[Ci fib]
-1.7 -8.6 59 -6 -6 1013.2 976.8 -4.7
03 17.04 Ю 5 20 км 8/0
[Ci sp]
+2.3 -7.7 48 -2 +1 1012.1 976.3
06 17.04 ЮЗ 7-12
{13}
20 км 3/3 1000 м
[Cu hum Ci fib]
+6.4 -13.7 22 +2 +5 1010.3 975.1
09 17.04 ЮЗ 7-12
{13}
20 км 8/0 2000 м
[Ac trans Ci fib]
+5.3 -8.6 36 +1 +2 1009.2 973.8
12 17.04 ЮЗ 5
{12}
20 км 8/0 2000 м
[Ac trans]
+4.6 -7.8 40 +1 +1 1007.8 972.4 +7.3
15 17.04 Ю 2 20 км 4/0
[Ac As Ci fib]
+1.5 -7.5 51 -1 -1 1006.5 970.8
18 17.04 Ю 4 20 км 9/0
[Ci fib]
+1.7 -7.1 52 -3 -3 1003.7 968.1
21 17.04 ЮВ 4 20 км 6/0
[Ci fib]
+0.1 -7.3 57 -5 -5 999.4 963.7
00 18.04 ЮВ 5
{10}
20 км 9/3 600 м
[Cb cap Ac lent Ci fib]
+2.0 -5.6 57 -3 -3 993.0 957.8 -0.0
03 18.04 Ю 8-16
{16}
10 км слаб. ливневой дождь 10/8 600 м
[Cb cap As op]
+3.5 -0.1 77 -3 -3 989.5 954.6
06 18.04 З 6-15
{18}
20 км {ливн. осадки} 8/8 600 м
[Cb cap]
-1.1 -8.2 58 -7 -7 995.5 959.8
09 18.04 З 6-14
{18}
20 км 10/6 600 м
[Cb cap As op]
-1.9 -10.6 51 -8 -8 1003.3 967.2
12 18.04 З 4-11
{18}
20 км {ливн. осадки} 8/8 600 м
[Cb cap]
-5.2 -15.7 43 -11 -11 1009.5 972.8 +4.5 0.0
15 18.04 ЮЗ 5-12
{16}
4000 м слаб. ливневой снег 8/8 600 м
[Cb cap]
-8.9 -13.9 67 -16 -16 1014.0 976.6
18 18.04 ЮЗ 6-12
{17}
4000 м слаб. ливневой снег 10/8 600 м
[Cb cap As op]
-9.3 -12.2 79 -18 -18 1016.1 978.5
21 18.04 ЮЗ 5-11
{16}
4000 м слаб. ливневой снег 10/8 600 м
[Cb cap As op]
-7.6 -8.4 94 -15 -15 1018.3 981.0
00 19.04 З 5-11
{15}
4000 м слаб. ливневой снег {метель} 10/10 600 м
[Cb cap]
-7.2 -9.2 86 -15 -15 1022.1 984.7 -9.7 1 1
03 19.04 ЮЗ 6-13
{15}
20 км позёмок {ливн. осадки} 3/3 600 м
[Cb cap]
-4.4 -14.0 47 -11 -10 1024.6 987.5
06 19.04 З 5-12
{15}
20 км {ливн. осадки, метель} 3/3 1000 м
[Cu hum]
-1.3 -14.8 35 -7 -2 1025.6 988.8
09 19.04 ЮЗ 4
{13}
20 км 3/3 1000 м
[Cu hum]
+1.2 -14.0 31 -3 +1 1024.7 988.3
12 19.04 ЮЗ 3
{10}
20 км 8/8 1000 м
[Cu hum]
0.0 -13.0 37 -4 -4 1024.0 987.4 +1.5
15 19.04 З 1 20 км 8/0
[Ac As]
-2.1 -11.4 49 -4 -4 1023.1 986.3
18 19.04 ЮЗ 1 20 км 3/0
[Ci fib]
-4.2 -11.1 59 -6 -6 1021.3 984.3
21 19.04 Ю 1 20 км 3/0
[Ci fib]
-6.1 -11.2 67 -8 -8 1020.0 982.8
00 20.04 штиль 0 20 км 4/0
[Ci fib]
-5.8 -9.0 78 -7 -6 1018.5 981.4 -8.3
03 20.04 Ю 3 20 км 3/0
[Ci fib]
+0.9 -10.7 42 -3 +3 1016.1 979.9
06 20.04 Ю 2
{10}
20 км 4/0
[Ci fib]
+3.9 -11.1 33 +2 +13 опасность
простуды
1013.6 977.9

 

Местоположение метеостанции Боготол (Красноярский край, Россия): широта 56.23 долгота 89.58 высота над уровнем моря 291 м.

В архиве по умолчанию представлена погода в Боготоле за последнюю неделю. Архивные данные за месяц целиком и за предыдущие месяцы, начиная с января 2011 года, Вы можете получить, выбрав интересующий диапазон дат из раскрывающегося списка и нажав кнопку "Ввод!".


*Определитесь, кто Вы:
робот инопланетянин человек

Внимание! Время в таблицах - всемирное. Для получения местного времени необходимо прибавить поправку, которая равна 7 ч.

Смотрите также архив погоды в соседних городах и на ближайших метеорологических станциях:

Погода в Тюхтете (Красноярский край, Россия) (37 км)
Погода в Назарово (Красноярский край, Россия) (51 км)
Погода в Ачинске (Красноярский край, Россия) (58 км)
Погода в Тяжине (Кемеровская область, Россия) (67 км)
Погода в Большом Улуе (Красноярский край, Россия) (76 км)
Погода в Шарыпово (Красноярский край, Россия) (81 км)
Погода в Тисуле (Кемеровская область, Россия) (96 км)
Погода в Ужуре (Красноярский край, Россия) (105 км)
Погода в Новобирилюссах (Красноярский край, Россия) (110 км)
Погода в Мариинске (Кемеровская область, Россия) (118 км)

Пояснения к столбцам:

Ветер - указаны скорость ветра в м/с - средняя за 10 мин, порывы в срок и между сроками (в фигурных скобках) и направление, откуда дует ветер: С - северный, СВ - северо-восточный, В - восточный, ЮВ - юго-восточный, Ю - южный, ЮЗ - юго-западный, З - западный, СЗ - северо-западный.
Видимость - горизонтальная дальность видимости в метрах или километрах. При видимости от 1 до 10 км при отсутствии осадков обычно наблюдается дымка, при ухудшении видимости до 1 км и менее - туман. В сухую погоду видимость может ухудшаться дымом, пылью или мглою.
Явления - указаны атмосферные явления, наблюдавшиеся в срок или в последний час перед сроком; фигурными скобками обозначены явления, наблюдавшиеся между сроками (за 1-3 часа до срока); квадратными скобками обозначены град или гололедные отложения с указанием их диаметра в мм.
Облачность - указаны через наклонную черту общая и нижняя облачность в баллах и высота нижней границы облаков в метрах; квадратными скобками обозначены формы облаков: Ci - перистые, Cs - перисто-слоистые, Cc - перисто-кучевые, Ac - высококучевые, As - высокослоистые, Sc - слоисто-кучевые, Ns - слоисто-дождевые, Cu - кучевые, Cb - кучево-дождевые. Подробнее классификацию облаков см. в Атласе облаков (PDF).
T - Температура воздуха - температура, измеренная на высоте 2 м над землей.
Td - Температура точки росы - температура, при понижении до которой содержащийся в воздухе водяной пар достигнет насыщения.
f - Относительная влажность воздуха - влажноcть воздуха, измеренная на высоте 2 м над землей.
Te - Эффективная температура - температура, которую ощущает одетый по сезону человек в тени. Характеристика душности погоды. При расчете учитывается влияние влажности воздуха и скорости ветра на теплоощущения человека.
Tes - Эффективная температура на солнце - температура, которую ощущает человек, с поправкой на солнечный нагрев. Характеристика знойности погоды. Зависит от высоты солнца над горизонтом, облачности и скорости ветра. Ночью, в пасмурную погоду, а также при ветре 12 м/с и более поправка равна нулю.
P - Атмосферное давление - приведенное к уровню моря атмосферное давление.
Po - Атмосферное давление - измеренное на уровне метеостанции атмосферное давление.
Tmin - Минимальная температура - минимум температуры воздуха на высоте 2 м над землей.
Tmax - Максимальная температура - максимум температуры воздуха на высоте 2 м над землей.
R - Количество осадков - Количество выпавших осадков за период времени, мм. При наведении курсора мыши на число - период времени, за который выпало указанное количество осадков.
R24 - Количество осадков - Количество выпавших осадков за 24 часа, мм.
S - Снежный покров - Высота снежного покрова, см. При наведении курсора мыши на число - состояние снежного покрова и степень покрытия местности в баллах.